Wind_Speed
9 8 9 7 13 17 9 19 16 8 21 22 25 32 38 38 36 28 23 30 29 31 32 33 33 37 40 43 46 47 48 49 51 53 52 54 57 60 61 62 63 63 65 63
11 9 11 5 15 24 27 28 26 24 19 26 28 34 27 30 35 35 32 32 33 33 36 40 43 45 44 43 43 45 46 48 50 51 53 54 57 59 61 63 61 57 55 61
8 14 11 10 16 20 20 30 32 31 37 34 38 38 26 24 33 36 38 38 35 38 43 44 46 48 48 47 48 48 48 46 44 48 53 55 56 58 61 63 63 59 54 58
13 14 11 14 20 18 17 26 22 24 26 26 36 37 29 26 36 35 38 43 40 46 48 49 51 51 54 56 58 60 61 61 61 60 57 59 65 64 65 67 66 68 70 73
16 16 13 15 18 20 19 20 22 20 21 21 17 22 14 21 28 33 42 45 49 49 55 58 58 60 63 64 65 67 67 70 70 70 72 72 67 57 65 69 70 70 70 72
16 15 19 8 15 17 16 17 16 15 16 10 7 10 20 22 31 33 42 50 53 52 56 59 60 62 64 66 67 69 73 77 78 74 67 58 55 55 50 59 65 67 68 69
16 15 20 12 13 19 25 18 15 14 14 12 10 11 18 24 33 40 44 46 46 51 52 56 58 60 63 68 70 75 75 72 63 54 53 45 44 48 48 51 54 57 62 63
15 17 23 25 20 18 20 22 19 15 13 13 17 20 23 25 29 34 37 42 45 48 52 56 61 64 68 71 75 76 74 62 52 47 48 45 43 45 47 45 46 47 52 55
16 22 22 25 24 22 23 23 19 20 17 15 14 27 33 38 40 41 44 47 48 50 55 60 64 66 70 73 73 72 59 51 47 43 40 39 40 40 40 38 41 42 42 46
21 18 19 25 19 21 23 22 21 22 22 20 14 20 31 37 41 44 44 47 48 53 58 63 67 70 76 76 76 64 54 46 44 42 41 39 40 40 38 35 35 35 32 34
19 19 17 23 25 26 21 21 22 22 23 24 27 22 27 30 38 44 46 47 52 57 63 66 68 71 73 74 64 54 49 49 45 43 40 38 37 38 37 33 35 33 31 31
21 22 20 20 27 23 25 25 23 23 23 24 28 30 25 33 44 47 48 51 55 59 64 66 70 73 74 65 53 50 48 46 45 43 39 37 35 35 35 35 35 35 34 35
22 22 21 19 26 24 24 21 22 23 27 25 30 29 27 33 42 44 47 52 56 60 64 67 70 72 64 52 50 49 45 44 41 38 37 37 37 38 36 34 32 33 32 31
21 22 24 20 24 28 28 25 25 28 30 32 33 36 38 42 45 46 50 53 58 62 63 67 69 61 55 55 51 45 42 38 38 40 42 44 45 44 43 41 37 34 32 32
21 22 24 24 21 23 27 26 26 29 28 32 35 35 40 41 43 47 51 55 59 60 64 66 61 52 50 48 44 39 36 38 42 48 50 50 49 47 44 41 39 36 33 29
19 23 24 25 24 24 24 22 24 27 26 31 32 35 38 42 44 46 50 55 57 61 62 64 52 48 43 40 37 35 37 45 48 45 48 44 40 38 37 36 34 34 32 30
23 24 26 23 27 25 23 24 22 21 27 31 33 36 38 40 42 46 52 54 58 59 64 55 45 41 41 41 40 41 45 46 45 46 41 40 38 36 34 31 28 28 28 27
26 27 29 26 28 24 27 22 19 21 28 30 30 35 38 41 42 46 51 55 58 60 62 44 41 41 42 42 44 46 45 43 45 39 34 33 29 26 22 21 19 18 21 20
24 28 27 30 29 27 23 28 24 22 29 27 31 34 37 41 43 46 50 54 56 60 54 39 41 43 43 44 47 44 42 40 37 32 29 28 25 22 17 13 9 7 10 12
29 26 28 30 34 31 24 25 22 28 28 31 33 36 39 43 47 49 53 55 58 62 45 35 39 42 42 42 43 42 38 32 30 29 26 24 24 23 20 16 10 5 2 6
29 31 33 28 28 28 24 24 26 28 30 33 36 39 42 45 48 50 52 54 59 60 38 32 38 39 41 41 40 35 31 28 30 29 26 22 26 25 21 17 14 10 7 4
31 31 32 29 29 26 27 26 26 29 31 33 36 39 41 43 46 49 51 54 60 49 33 32 35 36 38 37 36 32 29 27 25 24 24 24 29 29 23 21 19 15 12 10
28 30 32 30 29 30 28 26 25 28 31 33 36 38 40 43 46 48 50 55 57 38 29 32 34 35 35 33 32 28 23 22 21 22 22 23 26 28 23 18 19 18 11 10
29 28 29 27 22 32 34 27 25 27 30 32 35 37 39 42 45 47 49 54 44 31 28 32 33 32 30 29 29 25 19 17 19 20 20 22 24 23 25 27 24 16 15 14
28 29 32 32 27 26 30 30 28 29 31 32 34 37 39 41 43 44 48 50 36 27 29 30 30 27 26 26 27 23 17 16 17 20 19 23 23 24 23 24 19 22 11 15
28 29 30 33 33 30 28 30 28 29 31 32 33 34 37 39 41 42 47 45 33 23 27 26 26 25 26 26 25 24 16 14 16 18 17 18 20 23 22 19 18 18 15 11
Wind_Direction
278 253 275 276 268 266 300 259 246 229 314 309 295 292 292 292 291 295 294 294 294 298 301 298 294 295 297 299 299 297 297 296 295 294 291 288 287 285 282 280 278 277 277 275
277 251 312 254 247 253 258 258 256 241 258 264 263 274 294 291 290 294 299 302 296 304 302 305 305 301 298 297 295 295 296 297 296 295 294 290 285 281 279 277 276 275 273 277
266 286 297 273 271 273 264 260 263 253 243 241 260 271 279 291 282 288 296 304 304 315 307 305 303 305 303 301 299 298 295 291 287 292 296 291 286 280 276 272 267 266 262 267
277 290 294 280 275 297 281 270 276 276 273 267 254 274 286 272 282 284 293 288 301 308 302 310 315 315 314 311 308 305 302 299 292 291 286 289 288 281 270 266 264 263 261 259
283 294 286 284 295 292 298 286 284 275 275 278 283 273 279 274 278 279 278 293 301 307 314 318 324 322 318 315 312 313 312 309 306 302 296 293 291 277 270 265 262 260 259 261
281 291 298 310 314 307 302 297 296 286 281 280 261 287 280 275 279 289 291 297 300 307 314 313 320 316 315 312 314 315 318 317 313 307 300 296 292 286 276 270 267 264 263 261
307 313 310 328 322 325 311 313 303 298 288 279 272 243 244 267 287 290 288 291 297 304 306 309 310 311 314 317 319 319 318 312 308 302 303 302 293 288 286 278 271 269 266 264
302 288 303 313 328 326 305 306 312 306 289 284 260 262 275 276 271 274 281 291 293 293 303 310 315 318 318 320 320 318 315 313 312 308 302 299 298 295 292 291 284 273 268 263
292 292 307 308 319 314 309 312 306 298 292 284 262 256 260 267 273 277 276 284 292 300 310 316 318 320 320 319 317 318 315 312 308 303 302 303 298 296 298 293 284 282 271 266
298 305 300 304 315 301 307 305 302 297 297 292 274 278 275 284 287 289 290 296 303 310 315 318 321 319 322 322 319 317 316 314 310 309 307 305 304 303 301 300 293 290 283 271
299 303 297 301 299 304 302 301 298 298 300 304 302 304 299 295 289 291 297 306 313 319 319 321 321 320 318 318 317 316 313 310 310 307 306 304 300 298 298 295 293 293 289 281
294 297 300 301 297 304 303 306 304 304 304 300 301 304 298 293 294 300 317 315 317 317 318 321 321 320 319 319 315 310 309 308 308 307 307 306 303 298 295 292 289 288 284 278
294 300 302 302 296 301 301 303 295 292 294 297 294 301 294 286 294 310 312 315 316 317 322 320 320 318 320 317 311 311 310 309 306 305 305 303 300 296 294 292 291 287 281 277
295 301 303 305 302 304 306 304 307 304 305 307 309 311 310 310 315 314 313 315 316 322 321 320 320 321 319 316 316 313 311 308 310 311 309 305 301 296 292 287 282 280 278 275
295 303 308 303 298 293 294 294 296 293 300 300 303 305 306 310 312 316 316 317 317 320 322 322 325 325 326 325 318 317 316 317 316 313 308 302 297 293 292 288 280 273 271 271
289 299 307 309 301 299 292 289 285 293 298 296 303 305 311 311 314 313 313 315 321 324 325 328 330 330 331 332 331 324 317 317 315 314 313 307 303 294 288 287 285 275 265 261
295 297 303 309 305 305 304 286 299 309 300 304 308 308 309 310 313 315 314 323 326 327 329 331 331 334 335 334 331 325 319 322 322 322 319 316 310 305 300 292 285 280 266 256
304 308 307 308 306 307 299 301 301 304 297 304 307 306 312 314 316 317 323 327 327 331 331 331 334 337 336 334 332 328 329 330 331 336 327 326 321 317 309 300 285 269 258 252
293 305 308 307 307 308 304 303 307 296 297 308 305 311 312 315 319 325 326 329 329 330 334 334 338 338 337 340 340 339 340 341 341 339 342 347 349 349 342 323 305 272 249 242
289 294 306 306 305 305 302 303 306 294 302 303 310 316 320 323 325 327 331 330 330 333 333 335 340 338 342 343 342 344 345 346 348 353 358 5 14 13 13 15 13 5 295 270
297 303 315 313 300 301 303 304 302 303 308 315 319 321 323 326 326 330 331 330 331 334 333 333 340 340 345 345 346 348 349 352 355 359 6 18 20 24 29 32 31 31 30 52
293 299 312 313 306 309 309 306 308 306 310 315 317 321 323 324 327 332 331 332 330 335 332 338 343 342 343 347 350 353 353 356 10 16 23 33 31 17 29 35 30 39 47 59
282 294 305 311 310 304 305 307 306 306 309 313 316 319 322 326 332 332 333 333 332 334 337 347 349 344 344 351 354 357 3 13 20 25 28 34 34 27 22 30 31 32 48 75
277 284 295 301 307 301 303 306 304 305 306 311 315 319 326 330 332 334 334 334 337 337 341 345 346 345 349 357 358 360 2 23 18 23 27 27 22 26 19 37 41 45 57 72
275 284 294 302 303 296 297 300 301 303 306 310 317 324 326 330 332 334 335 338 340 340 343 348 352 357 1 5 3 1 359 24 22 26 29 27 22 26 29 29 41 37 52 38
271 273 286 294 298 301 304 295 298 303 308 314 318 322 325 329 331 332 340 341 339 341 344 351 357 1 8 13 10 3 359 23 23 27 27 26 29 34 33 34 30 25 30 40
Height
5910 5909 5907 5906 5905 5906 5908 5908 5908 5906 5898 5902 5901 5896 5894 5892 5889 5887 5888 5887 5885 5883 5881 5878 5877 5874 5869 5861 5854 5849 5844 5840 5834 5828 5826 5821 5815 5813 5808 5806 5803 5802 5800 5803
5905 5903 5903 5904 5904 5903 5904 5902 5902 5905 5900 5898 5894 5894 5891 5887 5883 5880 5880 5878 5875 5875 5871 5868 5864 5861 5858 5854 5849 5843 5837 5831 5824 5818 5811 5808 5803 5800 5795 5793 5790 5789 5786 5784
5902 5901 5902 5902 5900 5898 5899 5895 5895 5895 5895 5893 5889 5889 5892 5883 5877 5876 5875 5872 5868 5865 5862 5859 5853 5848 5843 5838 5833 5830 5826 5822 5817 5807 5796 5791 5786 5782 5778 5776 5775 5777 5774 5771
5899 5899 5899 5897 5894 5896 5894 5889 5891 5890 5889 5890 5889 5883 5887 5880 5874 5873 5871 5865 5863 5861 5856 5849 5841 5835 5828 5822 5816 5809 5805 5800 5794 5790 5785 5777 5766 5761 5756 5753 5751 5753 5754 5753
5897 5895 5895 5893 5892 5889 5888 5885 5884 5884 5883 5882 5884 5880 5877 5872 5870 5868 5861 5858 5856 5850 5842 5835 5830 5822 5816 5809 5801 5793 5785 5777 5769 5764 5756 5749 5743 5738 5732 5731 5729 5730 5731 5731
5892 5892 5889 5889 5888 5886 5883 5882 5880 5879 5879 5879 5877 5875 5870 5868 5865 5863 5857 5852 5845 5841 5835 5830 5823 5816 5808 5798 5791 5781 5771 5758 5747 5736 5729 5723 5719 5713 5713 5709 5707 5709 5710 5712
5888 5886 5883 5884 5885 5882 5877 5877 5877 5877 5875 5873 5873 5872 5868 5866 5863 5857 5851 5846 5842 5838 5833 5827 5821 5813 5800 5785 5775 5763 5755 5743 5732 5722 5713 5708 5703 5697 5693 5691 5688 5689 5691 5693
5886 5883 5881 5879 5879 5879 5875 5873 5872 5871 5871 5873 5870 5868 5866 5863 5858 5854 5849 5845 5839 5833 5829 5819 5807 5795 5782 5770 5759 5748 5738 5725 5717 5709 5701 5695 5689 5683 5679 5677 5674 5672 5671 5672
5882 5879 5878 5875 5874 5874 5871 5869 5869 5866 5867 5867 5868 5862 5859 5855 5853 5849 5843 5839 5833 5826 5817 5804 5794 5781 5768 5758 5748 5736 5722 5713 5705 5697 5691 5684 5678 5673 5668 5665 5661 5658 5657 5657
5877 5877 5875 5871 5873 5870 5868 5866 5864 5862 5861 5860 5862 5859 5853 5848 5844 5838 5834 5831 5824 5815 5805 5792 5780 5767 5751 5740 5729 5718 5708 5700 5693 5685 5679 5673 5668 5663 5658 5654 5650 5646 5646 5646
5874 5874 5874 5869 5866 5864 5864 5862 5859 5858 5856 5853 5850 5854 5848 5844 5837 5829 5827 5821 5812 5800 5790 5781 5768 5757 5743 5731 5717 5707 5699 5690 5683 5676 5670 5665 5659 5655 5651 5647 5642 5640 5638 5637
5870 5869 5869 5867 5860 5861 5858 5856 5853 5850 5851 5849 5845 5844 5843 5836 5825 5820 5814 5807 5801 5792 5781 5770 5757 5743 5730 5718 5706 5697 5689 5680 5673 5666 5660 5656 5651 5646 5642 5638 5635 5632 5630 5628
5867 5865 5864 5863 5857 5855 5854 5852 5850 5847 5845 5845 5840 5839 5836 5828 5820 5816 5808 5801 5792 5782 5772 5758 5746 5731 5718 5706 5695 5687 5677 5669 5662 5657 5651 5646 5641 5636 5632 5628 5625 5622 5621 5620
5862 5860 5858 5858 5853 5848 5847 5846 5844 5840 5838 5835 5832 5827 5822 5816 5812 5807 5800 5792 5780 5772 5760 5748 5734 5718 5705 5694 5684 5674 5667 5660 5654 5647 5640 5634 5629 5624 5619 5616 5614 5613 5611 5610
5858 5856 5853 5851 5851 5847 5842 5840 5839 5836 5835 5829 5826 5823 5816 5812 5807 5799 5790 5781 5772 5763 5751 5736 5720 5707 5695 5684 5674 5666 5659 5653 5646 5638 5629 5621 5614 5609 5605 5602 5601 5600 5600 5600
5854 5850 5848 5846 5843 5841 5838 5837 5834 5830 5829 5824 5821 5817 5811 5804 5800 5792 5783 5775 5764 5751 5738 5723 5709 5698 5687 5678 5669 5661 5654 5645 5636 5626 5616 5607 5600 5594 5591 5589 5588 5587 5588 5590
5847 5845 5843 5842 5836 5835 5833 5829 5828 5825 5821 5818 5815 5810 5805 5799 5793 5784 5773 5764 5753 5741 5727 5713 5703 5692 5682 5673 5664 5655 5645 5635 5625 5615 5604 5596 5589 5583 5578 5576 5576 5577 5578 5580
5839 5837 5836 5835 5831 5831 5825 5825 5823 5819 5815 5813 5809 5803 5798 5791 5785 5776 5765 5755 5744 5731 5719 5708 5697 5687 5678 5668 5657 5646 5636 5627 5616 5606 5597 5589 5581 5575 5570 5567 5566 5568 5570 5573
5837 5832 5831 5826 5824 5824 5822 5816 5816 5812 5808 5807 5802 5797 5792 5785 5777 5768 5759 5747 5735 5723 5710 5701 5691 5682 5673 5663 5653 5642 5632 5622 5613 5603 5595 5587 5580 5573 5568 5565 5563 5564 5566 5568
5829 5829 5827 5822 5816 5814 5815 5813 5811 5806 5804 5799 5795 5790 5783 5776 5768 5760 5749 5738 5727 5715 5703 5696 5687 5679 5669 5660 5650 5640 5631 5621 5613 5605 5597 5589 5582 5576 5571 5568 5566 5565 5566 5567
5821 5818 5818 5815 5811 5809 5808 5806 5803 5800 5799 5791 5786 5781 5775 5768 5760 5752 5743 5732 5719 5708 5699 5692 5684 5675 5666 5658 5649 5640 5630 5622 5615 5607 5600 5593 5587 5581 5576 5572 5570 5568 5567 5566
5814 5813 5811 5808 5804 5803 5800 5799 5797 5793 5789 5786 5781 5775 5769 5763 5756 5747 5737 5726 5713 5703 5696 5689 5681 5672 5665 5657 5648 5640 5631 5623 5617 5610 5604 5598 5593 5588 5583 5579 5575 5573 5571 5570
5810 5808 5805 5803 5799 5796 5795 5794 5792 5788 5784 5780 5775 5770 5765 5758 5750 5741 5731 5720 5707 5699 5693 5685 5678 5671 5663 5656 5648 5641 5633 5627 5621 5615 5610 5604 5599 5594 5589 5584 5580 5578 5575 5574
5803 5802 5801 5799 5797 5789 5785 5787 5786 5783 5779 5775 5770 5765 5758 5752 5744 5736 5726 5715 5704 5697 5691 5684 5677 5669 5662 5656 5649 5642 5636 5630 5625 5620 5614 5610 5604 5599 5594 5590 5586 5583 5581 5579
5796 5794 5792 5790 5790 5788 5784 5781 5779 5775 5773 5769 5764 5758 5753 5747 5739 5732 5723 5710 5701 5695 5689 5682 5675 5668 5662 5656 5650 5643 5638 5633 5629 5625 5619 5615 5610 5605 5601 5597 5593 5588 5585 5583
5788 5787 5786 5783 5781 5780 5778 5775 5773 5770 5767 5763 5759 5754 5748 5742 5735 5728 5718 5707 5699 5694 5688 5681 5674 5669 5663 5657 5652 5646 5641 5637 5632 5628 5624 5621 5616 5612 5608 5602 5598 5593 5590 5588